Dublin, Ireland

10:24 PM GMT on March 25, 2017 (GMT +0000)
Dublin Airport

Weather History for EIDW - December, 2011

Change the Weather History Date:

Sunday, December 11, 2011

  Actual Average Record
Temperature  
Mean Temperature 40 °F -  
Max Temperature 44 °F 47 °F 57 °F (1998)
Min Temperature 35 °F 37 °F 26 °F (2008)
Degree Days  
Heating Degree Days 26    
Moisture  
Dew Point 39 °F    
Average Humidity 92    
Maximum Humidity 100    
Minimum Humidity 87    
Precipitation  
Precipitation 0.12 in 0.10 in - ()
Sea Level Pressure  
Sea Level Pressure 29.55 in    
Wind  
Wind Speed 13 mph ()    
Max Wind Speed 25 mph    
Max Gust Speed 29 mph    
Visibility 6.7 miles    
Events Rain    
Averages and records for this station are not official NWS values.
T = Trace of Precipitation, MM = Missing Value Source: Averaged Metar Reports

Daily Weather History Graph

Daily Weather History Graph

Search for Another Location

Airport or City:

Trip Planner

Search our weather history database for the weather conditions in past years. The results will help you decide how hot, cold, wet, or windy it might be!

Date:

Astronomy

Dec. 11, 2011 Rise Set
Actual Time 8:30 AM GMT 4:05 PM GMT
Civil Twilight 7:47 AM GMT 4:48 PM GMT
Nautical Twilight 7:02 AM GMT 5:33 PM GMT
Astronomical Twilight 6:19 AM GMT 6:16 PM GMT
Moon 5:02 PM GMT (12/11) 9:08 AM GMT (12/11)
Length of Visible Light 9h 00m
Length of Day
7h 35m
Full, 99% of the Moon is Illuminated
Dec 11
Full
Dec 18
Last Quarter
Dec 24
New
Jan 1
First Quarter
Jan 9
Full

Hourly Weather History & Observations

Time (GMT) Temp. Windchill Dew Point Humidity Pressure Visibility Wind Dir Wind Speed Gust Speed Precip Events Conditions
12:00 AM 46.4 °F 39.2 °F 42.8 °F 87% 29.71 in 6.2 mi SSW 18.4 mph - N/A Rain Light Rain
12:30 AM 46.4 °F 39.5 °F 44.6 °F 93% 29.68 in 6.2 mi SW 17.3 mph 28.8 mph N/A   Light Drizzle
1:00 AM 46.4 °F 39.2 °F 44.6 °F 93% 29.68 in 6.2 mi SW 18.4 mph - N/A   Light Drizzle
1:30 AM 46.4 °F 39.5 °F 44.6 °F 93% 29.68 in 6.2 mi SW 17.3 mph - N/A   Light Drizzle
2:00 AM 44.6 °F 37.2 °F 44.6 °F 100% 29.68 in 5.0 mi West 17.3 mph - N/A   Light Drizzle
2:30 AM 44.6 °F 38.4 °F 42.8 °F 93% 29.65 in 6.2 mi WSW 12.7 mph - N/A   Mostly Cloudy
3:00 AM 44.6 °F 39.2 °F 42.8 °F 93% 29.65 in 6.2 mi SW 10.4 mph - N/A   Mostly Cloudy
3:30 AM 42.8 °F 37.5 °F 42.8 °F 100% 29.65 in 6.2 mi SW 9.2 mph - N/A   Light Drizzle
4:00 AM 42.8 °F 38.0 °F 42.8 °F 100% 29.65 in 6.2 mi SSW 8.1 mph - N/A Rain Light Rain
4:30 AM 42.8 °F 37.5 °F 42.8 °F 100% 29.62 in 6.2 mi SW 9.2 mph - N/A   Mostly Cloudy
5:00 AM - - - N/A% 29.62 in 6.2 mi SW 9.2 mph - N/A   Mostly Cloudy
5:30 AM 42.8 °F 37.5 °F 42.8 °F 100% 29.62 in 6.2 mi SW 9.2 mph - N/A   Mostly Cloudy
6:00 AM 43 °F - 42 °F 93% 29.62 in 16 mi SW 11.2 mph - -   Partly Cloudy
6:00 AM 42.8 °F 37.0 °F 42.8 °F 100% 29.59 in 6.2 mi SW 10.4 mph - N/A   Mostly Cloudy
6:30 AM 42.8 °F 36.6 °F 41.0 °F 93% 29.59 in 6.2 mi WSW 11.5 mph - N/A   Mostly Cloudy
7:00 AM 42.8 °F 36.6 °F 41.0 °F 93% 29.59 in 6.2 mi WSW 11.5 mph - N/A   Mostly Cloudy
7:30 AM 42.8 °F 36.2 °F 41.0 °F 93% 29.59 in 6.2 mi WSW 12.7 mph - N/A   Mostly Cloudy
8:00 AM 42.8 °F 36.6 °F 41.0 °F 93% 29.59 in 6.2 mi SW 11.5 mph - N/A   Mostly Cloudy
8:30 AM 42.8 °F 36.6 °F 41.0 °F 93% 29.56 in 6.2 mi SW 11.5 mph - N/A   Mostly Cloudy
9:00 AM 42.8 °F 36.6 °F 41.0 °F 93% 29.56 in 6.2 mi SW 11.5 mph - N/A   Mostly Cloudy
9:30 AM 42.8 °F 37.0 °F 41.0 °F 93% 29.56 in 6.2 mi SW 10.4 mph - N/A   Mostly Cloudy
10:00 AM 42.8 °F 37.0 °F 41.0 °F 93% 29.56 in 6.2 mi SW 10.4 mph - N/A   Mostly Cloudy
10:30 AM 42.8 °F 37.5 °F 41.0 °F 93% 29.56 in 6.2 mi SW 9.2 mph - N/A   Mostly Cloudy
11:00 AM 42.8 °F 37.0 °F 41.0 °F 93% 29.53 in 6.2 mi SW 10.4 mph - N/A   Mostly Cloudy
11:30 AM 44.6 °F 39.2 °F 41.0 °F 87% 29.53 in 6.2 mi SW 10.4 mph - N/A   Mostly Cloudy
12:00 PM 44 °F - 42 °F 88% 29.54 in 16 mi SSW 8.9 mph - - Rain Light Rain
12:00 PM 44.6 °F 40.2 °F 41.0 °F 87% 29.53 in 6.2 mi SSW 8.1 mph - N/A Rain Light Rain
12:30 PM 44.6 °F 39.2 °F 41.0 °F 87% 29.50 in 5.0 mi SW 10.4 mph 21.9 mph N/A Rain Light Rain
1:00 PM 42.8 °F 35.4 °F 41.0 °F 93% 29.50 in 6.2 mi SW 15.0 mph - N/A Rain Light Rain
1:30 PM 42.8 °F 36.2 °F 41.0 °F 93% 29.47 in 3.7 mi WSW 12.7 mph - N/A Rain Light Rain
2:00 PM 39.2 °F 28.3 °F 37.4 °F 93% 29.50 in 4.3 mi West 25.3 mph - N/A Rain Light Rain
2:30 PM 37.4 °F 29.3 °F 35.6 °F 93% 29.50 in 6.2 mi WNW 12.7 mph - N/A Rain Light Rain
3:00 PM 37.4 °F 30.3 °F 35.6 °F 93% 29.50 in 6.2 mi West 10.4 mph - N/A   Mostly Cloudy
3:30 PM 37.4 °F 29.3 °F 35.6 °F 93% 29.50 in 6.2 mi West 12.7 mph - N/A   Mostly Cloudy
4:00 PM 37.4 °F 30.3 °F 35.6 °F 93% 29.50 in 6.2 mi WSW 10.4 mph - N/A   Mostly Cloudy
4:30 PM 37.4 °F 28.9 °F 35.6 °F 93% 29.47 in 6.2 mi WSW 13.8 mph - N/A   Mostly Cloudy
5:00 PM 37.4 °F 28.2 °F 35.6 °F 93% 29.47 in 6.2 mi WSW 16.1 mph - N/A   Mostly Cloudy
5:30 PM 37.4 °F 28.2 °F 35.6 °F 93% 29.47 in 6.2 mi WSW 16.1 mph - N/A   Mostly Cloudy
6:00 PM 38 °F - 35 °F 87% 29.51 in 19 mi WSW 17.9 mph - -   Partly Cloudy
6:00 PM 39.2 °F 29.8 °F 35.6 °F 87% 29.47 in 6.2 mi WSW 18.4 mph - N/A   Scattered Clouds
6:30 PM 37.4 °F 28.9 °F 35.6 °F 93% 29.50 in 6.2 mi SW 13.8 mph - N/A   Scattered Clouds
7:00 PM 37.4 °F 28.5 °F 35.6 °F 93% 29.47 in 6.2 mi SW 15.0 mph - N/A   Partly Cloudy
7:30 PM 37.4 °F 27.8 °F 35.6 °F 93% 29.50 in 6.2 mi SW 17.3 mph - N/A   Partly Cloudy
8:00 PM 37.4 °F 27.5 °F 35.6 °F 93% 29.50 in 6.2 mi SW 18.4 mph - N/A   Partly Cloudy
8:30 PM 37.4 °F 28.5 °F 33.8 °F 87% 29.50 in 6.2 mi SW 15.0 mph - N/A   Partly Cloudy
9:00 PM 35.6 °F 27.1 °F 33.8 °F 93% 29.50 in 6.2 mi SW 12.7 mph - N/A   Partly Cloudy
9:30 PM 35.6 °F 27.1 °F 33.8 °F 93% 29.50 in 6.2 mi SW 12.7 mph - N/A   Partly Cloudy
10:00 PM 37.4 °F 28.5 °F 33.8 °F 87% 29.47 in 6.2 mi SW 15.0 mph - N/A   Partly Cloudy
10:30 PM 37.4 °F 27.5 °F 33.8 °F 87% 29.47 in 6.2 mi SW 18.4 mph - N/A   Partly Cloudy
11:00 PM 37.4 °F 27.5 °F 33.8 °F 87% 29.47 in 6.2 mi SW 18.4 mph - N/A   Partly Cloudy
11:30 PM 37.4 °F 26.9 °F 33.8 °F 87% 29.47 in 6.2 mi SW 20.7 mph - N/A   Partly Cloudy